Home > Weather > Fagernes > Past weeks

Flag for Norway Past Weather in Fagernes, Norway — Yesterday and Last 2 Weeks

Now
63 °F

Mild.


Feels Like: 63 °F
Forecast: 50 / 68 °F
Wind: 1 mph from East

Location: Fagernes

Current Time: Jul 29, 2016 at 4:08:31 PM

Latest Report: Jul 29, 2016 at 3:00 PM


Visibility: N/A

Pressure: 29.71 "Hg

Humidity: 60%

Dew Point: 49 °F

Location of FagernesLocation

Past Weather in Fagernes — Graph

°F

Fagernes Temperature Yesterday

Maximum temperature yesterday: 68 °F (at 5:00 PM)
Minimum temperature yesterday: 55 °F (at 4:00 AM)
Average temperature yesterday: 60 °F

High & Low Weather Summary for the Past Weeks

 TemperatureHumidityPressure
High75 °F (Jul 20, 7:00 PM)93% (Jul 15, 1:00 AM)30.15 "Hg (Jul 15, 1:00 AM)
Low46 °F (Jul 18, 5:00 AM)35% (Jul 16, 2:00 PM)29.69 "Hg (Jul 28, 7:00 AM)
Average61 °F71%29.94 "Hg
* Reported Jul 14 3:00 PM — Jul 29 3:00 PM, Fagernes, Weather by CustomWeather, © 2016

Note: Actual official high and low records may vary slightly from our data, if they occured in-between our weather recording intervals... More about our weather records

Advertising

Fagernes Weather History for the Previous 24 Hours

Scroll right to see more
 ConditionsComfort  
Time TempWeatherWind HumidityBarometerVisibility
3:00 PM
Fri, Jul 29
63 °FMild.1 mph60%29.71 "HgN/A
2:00 PM63 °FOvercast.1 mph56%29.71 "Hg19 mi
1:00 PM65 °FMild.2 mph52%29.71 "HgN/A
12:00 PM63 °FMild.2 mph53%29.73 "HgN/A
11:00 AM63 °FMild.1 mph56%29.75 "HgN/A
10:00 AM59 °FCool.No wind65%29.77 "HgN/A
9:00 AM55 °FCool.1 mph70%29.79 "HgN/A
8:00 AM52 °FPassing clouds.2 mph76%29.80 "Hg40 mi
7:00 AM52 °FCool.No wind78%29.81 "HgN/A
6:00 AM46 °FCool.1 mph89%29.83 "HgN/A
5:00 AM48 °FPassing clouds.No wind87%29.83 "Hg40 mi
3:00 AM50 °FCool.No wind83%29.82 "HgN/A
2:00 AM53 °FPassing clouds.1 mph78%29.81 "Hg34 mi
11:00 PM
Thu, Jul 28
57 °FCool.No wind62%29.78 "HgN/A
8:00 PM64 °FPartly sunny.2 mph47%29.74 "Hg34 mi
7:00 PM65 °FMild.3 mph48%29.73 "HgN/A
6:00 PM67 °FMild.2 mph40%29.72 "HgN/A
5:00 PM68 °FPartly sunny.1 mph36%29.72 "Hg34 mi
Weather by CustomWeather, © 2016

See weather overviewHow to use our weather pages